Theta_e
308 307 307 306 305 304 303 303 303 303 302 302 301 301 301 301 301 301 301 301 300 298 295 300 307 311 310 310 309 309 309 313 318 325 329 331 329 328 328 329 329 325 325
308 308 307 306 306 305 304 303 303 302 302 302 301 301 300 301 300 300 300 300 299 299 297 294 301 307 310 312 312 310 309 309 315 319 326 331 329 328 328 328 328 325 324
309 308 308 307 306 305 304 303 303 302 302 301 301 300 300 300 300 300 300 299 299 299 299 297 294 302 307 309 311 311 310 310 312 316 323 327 330 329 329 329 328 325 323
308 308 307 307 306 305 304 303 303 302 302 302 301 301 300 300 300 300 300 299 299 299 299 299 298 296 302 306 309 310 312 310 311 314 318 324 329 330 329 329 327 325 323
308 307 306 305 305 303 303 303 303 302 302 302 301 301 301 300 300 299 299 299 298 298 298 300 299 298 296 301 305 309 311 311 311 312 316 320 326 331 329 328 327 325 323
307 306 305 304 303 302 302 303 303 303 302 302 301 301 300 300 299 299 299 299 298 298 298 299 300 300 299 298 301 307 310 311 312 312 315 317 324 330 329 328 327 324 323
306 306 305 304 302 302 302 302 303 303 302 301 301 300 300 299 299 299 298 299 299 298 298 298 299 300 301 300 295 303 308 310 313 312 314 317 321 328 329 329 327 324 323
307 305 304 302 301 301 301 302 301 302 302 302 301 301 299 300 301 300 299 299 299 298 299 299 300 300 300 302 301 299 305 308 312 313 313 316 319 327 329 329 327 324 324
302 302 302 301 301 300 300 300 301 301 301 300 300 300 298 298 301 301 300 299 298 298 301 301 300 300 300 301 303 301 297 306 310 312 313 316 318 324 329 328 327 324 324
301 301 300 300 300 300 300 299 299 300 301 300 300 299 299 300 299 301 299 299 299 300 301 301 301 301 300 301 303 303 300 303 308 310 311 315 318 322 328 328 328 324 324
300 300 300 299 300 299 299 299 299 299 299 299 300 299 299 299 299 300 298 300 300 300 301 301 302 301 301 301 303 305 305 304 305 308 309 314 317 322 327 327 328 324 323
298 298 298 298 299 300 299 298 298 298 298 299 298 298 298 300 299 299 297 298 300 301 300 301 301 302 301 301 302 304 305 304 304 304 307 311 317 321 327 326 328 324 323
296 295 295 295 296 297 299 298 298 297 297 298 298 298 298 298 299 299 299 299 298 301 301 301 301 302 301 301 302 303 304 303 302 299 300 307 313 321 327 327 327 324 323
295 294 293 292 292 294 295 297 297 298 297 297 297 297 297 298 299 298 299 299 298 299 301 302 302 302 302 303 303 304 303 302 302 300 302 305 312 320 328 326 327 324 323
292 292 291 289 291 292 292 293 295 297 297 297 297 297 297 297 298 298 297 297 298 298 298 301 302 303 303 304 304 303 303 303 300 300 301 303 311 323 326 327 326 324 322
289 289 288 287 287 287 289 291 292 295 295 296 296 297 297 297 297 297 297 296 296 297 298 302 303 302 303 304 305 304 303 304 307 303 301 302 316 324 326 326 326 323 320
289 289 289 288 288 287 287 288 290 291 292 293 294 295 296 296 297 296 296 296 296 297 298 301 302 302 303 304 305 304 307 307 306 304 302 312 321 324 326 326 324 322 319
290 291 290 290 289 288 288 288 288 289 289 290 291 290 294 296 296 296 296 296 296 296 297 301 303 303 303 304 305 307 308 306 307 305 303 320 323 325 326 324 322 320 318
291 291 291 290 290 289 289 288 288 287 287 288 289 290 290 293 294 295 296 296 296 295 296 299 302 301 302 304 306 305 307 313 314 312 311 321 324 325 325 320 322 320 317
290 290 290 290 290 290 289 288 288 288 287 289 289 290 290 291 291 292 293 295 296 295 296 299 301 301 302 304 306 306 308 311 310 314 319 322 324 325 322 321 321 320 317
290 290 290 289 289 289 289 288 288 288 288 288 288 288 289 290 290 291 295 295 295 296 296 299 300 301 304 304 305 306 310 310 312 315 318 320 324 323 322 321 321 318 317
289 288 288 289 289 289 289 289 288 288 288 288 288 289 288 289 290 292 295 295 295 295 297 299 300 302 303 304 304 307 311 311 314 316 316 316 319 321 321 321 318 317 317
289 288 288 288 288 287 288 288 288 288 288 288 288 288 289 290 291 292 293 295 295 295 297 299 300 302 304 304 305 313 311 314 314 315 316 308 317 316 317 319 317 317 318
289 288 288 288 288 288 288 288 288 288 287 288 288 289 288 289 291 291 293 294 294 295 296 297 298 301 305 304 310 311 312 314 312 313 317 302 307 311 316 319 317 318 318
288 288 288 288 287 287 288 288 287 288 287 288 287 289 289 289 290 292 293 293 294 294 295 297 299 306 306 306 310 311 312 312 309 308 310 305 300 304 312 313 315 317 317
289 289 288 288 288 288 288 288 288 288 288 289 289 289 290 290 291 291 293 293 294 295 296 298 303 307 305 307 310 312 312 310 307 307 306 303 304 307 298 300 307 315 316
Wind_Speed
5 6 7 6 8 9 9 8 8 8 7 8 9 7 8 8 8 7 10 9 11 10 8 10 6 4 4 3 3 2 1 4 4 7 7 15 15 14 15 17 18 16 15
8 8 9 10 10 10 10 10 9 9 8 9 8 10 10 9 9 9 9 10 11 11 8 9 11 8 5 3 1 2 2 3 5 5 8 12 16 17 16 17 18 17 16
10 11 12 13 13 13 12 13 15 13 13 12 12 12 12 11 12 12 11 10 12 11 10 5 10 12 10 7 4 1 3 3 5 5 9 10 16 18 17 18 19 18 17
13 13 14 15 15 15 15 15 14 13 14 14 13 12 11 11 11 12 12 13 11 10 9 8 6 11 13 10 8 6 4 5 5 7 9 10 13 18 18 20 20 19 18
13 15 15 16 17 16 17 17 16 16 15 15 15 15 14 14 14 12 14 13 12 13 12 10 10 9 12 13 12 9 5 6 6 8 9 10 12 17 19 21 21 21 19
17 14 14 16 17 19 19 18 18 18 17 16 15 16 14 12 13 14 15 14 15 14 13 11 12 10 10 15 15 11 8 6 7 8 9 10 14 17 21 23 23 22 21
13 16 17 18 19 19 21 21 18 19 19 17 16 17 19 20 20 20 19 16 15 14 14 13 14 13 14 9 15 15 12 9 8 9 10 9 13 18 23 25 26 23 21
28 24 23 20 20 20 19 21 23 20 17 18 18 15 4 12 22 27 23 17 16 14 14 14 14 12 12 12 8 17 15 11 9 10 10 10 14 19 24 26 27 25 23
17 16 19 22 21 21 19 20 19 22 21 19 17 12 1 4 9 16 19 14 15 15 13 12 13 13 13 12 13 7 18 15 12 13 10 11 13 16 26 27 28 27 25
22 21 21 21 22 21 22 23 24 21 20 21 17 20 17 9 0 3 13 14 12 10 12 12 14 12 13 14 9 12 12 18 15 14 13 13 14 14 24 29 29 28 27
22 22 24 28 28 27 26 26 24 22 24 22 20 18 17 21 20 4 3 7 13 13 13 13 10 13 13 14 13 9 11 13 18 18 15 18 13 16 22 31 32 29 27
22 20 20 23 25 30 31 29 29 28 25 22 22 20 20 13 15 9 4 6 9 14 12 10 10 10 12 15 14 14 14 12 14 18 21 20 17 19 20 33 33 30 30
19 21 22 22 20 19 26 30 30 30 29 27 23 22 21 21 18 16 13 7 5 5 6 7 9 11 12 15 14 12 14 13 13 14 15 25 20 20 28 35 35 34 31
14 19 24 24 20 17 17 14 31 31 31 30 28 25 22 17 19 16 9 5 4 7 5 6 11 12 13 14 15 14 11 11 12 12 14 23 22 20 35 39 37 35 31
32 37 40 38 38 34 25 20 15 23 27 29 30 29 25 20 16 17 16 13 8 3 3 9 6 11 11 12 10 13 12 10 11 12 13 19 21 23 38 39 40 36 33
23 24 23 21 21 23 29 29 24 12 16 15 18 23 24 21 19 19 16 21 16 13 4 3 15 14 11 11 9 7 9 11 11 10 12 19 21 22 40 37 41 38 35
22 22 21 20 20 19 18 22 23 24 16 18 17 16 20 22 20 20 17 17 19 14 12 14 12 16 10 4 10 11 9 7 10 10 13 24 23 23 41 38 40 37 34
22 21 20 21 21 20 16 18 20 23 27 22 24 25 19 28 22 19 21 20 20 19 15 7 7 13 9 7 4 11 12 9 12 11 18 22 23 27 43 40 37 33 30
20 20 20 21 21 20 19 20 19 20 20 27 27 32 27 24 26 23 21 22 19 21 15 13 7 10 13 10 8 8 6 9 7 10 22 21 27 41 42 28 32 31 31
17 18 16 15 17 20 21 19 20 20 19 21 29 27 31 30 25 25 22 23 20 17 14 11 7 10 9 9 8 9 8 5 10 12 18 25 37 45 35 38 32 32 33
17 16 14 13 12 12 19 21 19 20 20 20 21 26 28 26 25 29 26 25 21 17 14 9 7 9 11 8 10 11 9 9 7 14 23 32 44 45 36 37 37 37 35
16 17 15 12 9 9 12 18 18 19 21 21 17 21 22 27 26 36 27 28 22 22 14 10 10 10 11 13 16 13 15 15 5 23 28 27 38 40 41 40 39 37 33
17 18 18 15 10 8 10 13 14 15 21 19 21 21 20 25 29 26 23 21 21 20 14 10 9 12 11 15 14 13 20 10 12 22 38 27 31 30 33 38 36 34 33
18 19 19 19 17 14 13 15 16 18 18 19 20 21 22 24 26 27 28 22 20 21 16 8 8 14 13 14 8 16 18 23 28 25 39 14 28 33 36 37 31 33 33
19 17 18 17 18 17 17 17 17 18 16 16 19 20 22 26 30 24 26 22 17 17 12 8 6 3 12 10 8 19 24 28 15 13 23 30 21 37 35 32 34 35 31
17 18 17 18 17 14 14 14 17 18 16 14 21 21 21 27 33 29 23 20 19 14 9 7 7 10 12 10 14 20 28 23 19 13 20 18 30 28 11 25 31 36 32
Wind_Direction
266 264 264 264 269 273 282 280 274 279 278 285 278 276 281 281 286 287 297 301 303 322 274 244 254 285 260 299 309 332 259 208 183 191 150 171 169 175 180 176 169 162 155
256 265 273 271 267 265 264 265 273 274 287 295 288 276 268 265 267 269 271 294 305 301 318 258 237 241 262 311 328 281 278 216 195 184 183 162 173 172 181 179 172 165 158
251 262 268 272 270 270 266 260 261 271 265 264 263 261 261 260 259 261 264 272 288 290 285 302 252 235 237 251 270 305 263 239 208 187 190 180 172 173 183 181 175 168 160
246 249 259 270 276 271 264 257 255 250 259 261 263 265 269 271 259 253 260 266 263 275 277 284 289 246 234 237 242 259 267 245 224 202 195 190 175 178 184 182 178 172 162
252 250 251 265 273 278 266 257 255 250 256 265 272 271 257 253 261 264 262 258 255 256 256 290 269 273 246 231 235 241 264 231 230 217 206 197 183 181 186 184 182 175 167
260 255 256 261 265 264 266 262 250 247 248 255 263 270 280 273 248 252 259 259 259 256 253 247 264 266 264 229 227 230 235 243 226 222 212 205 193 187 189 187 185 179 171
271 262 256 257 262 259 256 257 258 246 245 251 264 270 269 267 262 253 251 258 256 254 246 241 238 250 264 259 228 224 227 233 230 213 209 210 199 190 189 190 185 179 175
265 259 256 252 251 258 261 252 244 253 250 237 239 251 276 271 250 237 230 236 247 247 246 234 235 237 242 246 248 223 218 222 221 207 205 210 202 190 189 191 184 179 176
285 268 252 241 239 246 256 260 253 236 240 247 247 223 274 251 309 212 201 220 240 227 243 247 229 226 229 232 245 230 214 204 209 202 202 207 209 195 185 192 187 179 176
286 280 272 264 252 244 245 252 255 250 238 233 240 241 231 236 339 328 192 205 229 220 242 237 228 227 224 226 230 223 204 203 203 196 194 191 207 208 181 191 187 180 176
290 283 274 265 256 244 241 240 246 248 244 240 229 235 235 216 236 232 300 187 201 227 231 228 242 216 218 219 220 215 215 204 213 208 208 200 190 195 177 189 186 178 176
281 283 282 272 261 249 237 234 235 241 246 238 233 235 233 220 203 211 242 289 278 220 209 219 224 217 215 214 217 225 224 219 217 221 219 213 208 193 184 186 187 178 175
297 297 296 292 287 281 246 232 228 230 233 233 231 229 234 236 214 213 219 258 278 165 180 218 226 216 217 208 214 230 208 208 221 224 224 213 220 201 180 187 189 181 176
304 298 306 297 292 281 271 283 228 224 224 225 225 225 230 230 213 208 200 232 294 274 230 178 212 214 215 202 212 220 221 227 230 224 219 210 216 202 177 186 186 177 171
306 300 294 286 278 272 273 280 278 240 223 219 220 221 221 221 207 202 204 210 266 285 263 193 185 207 204 203 211 192 214 230 219 220 222 207 208 190 171 183 184 175 172
300 296 292 288 287 276 260 257 256 232 234 212 207 214 218 212 197 195 205 215 246 273 295 227 197 188 200 192 194 197 215 234 223 231 224 198 193 186 176 184 182 172 173
297 289 282 283 279 272 258 241 248 238 236 218 216 205 213 210 190 191 199 205 235 258 282 319 187 162 199 203 183 198 215 226 244 237 206 177 179 184 179 182 170 168 170
297 287 278 272 267 261 257 241 243 239 235 224 229 231 220 193 181 193 199 207 231 239 281 300 134 152 182 195 188 188 196 218 225 207 182 170 175 177 174 158 156 165 161
305 302 288 274 267 260 248 237 236 232 235 233 228 224 221 200 183 192 204 202 216 231 263 275 192 165 194 216 182 200 228 164 159 183 174 173 174 171 163 158 160 163 162
331 320 312 307 275 256 239 228 226 221 218 208 207 204 196 203 187 190 213 194 204 219 247 257 200 187 234 186 191 213 206 178 207 178 184 174 170 175 161 161 163 166 163
337 334 327 317 295 260 234 218 214 209 205 205 204 198 201 205 204 204 203 188 196 204 229 222 219 217 198 198 219 214 194 159 172 167 161 167 167 162 167 167 169 165 161
9 4 360 349 326 268 232 205 198 198 194 190 175 178 199 198 198 197 190 183 190 193 214 199 212 233 206 202 215 229 166 171 121 161 132 133 154 158 165 170 161 156 160
18 21 23 27 39 63 139 164 174 182 175 174 175 180 177 176 181 176 172 185 189 192 201 202 226 261 234 208 222 180 161 177 117 144 134 98 141 139 157 154 152 155 165
30 37 47 57 68 86 110 132 144 146 156 169 166 169 173 179 168 170 180 182 191 192 209 236 280 293 187 208 209 172 166 130 128 128 146 97 122 121 138 143 154 162 157
38 42 58 63 72 85 99 112 126 127 135 146 166 165 167 168 176 163 164 175 182 198 223 238 271 165 158 178 187 169 145 134 114 116 131 123 120 115 126 139 154 155 156
41 49 58 60 77 83 96 106 120 128 113 122 148 158 157 162 161 169 165 169 176 189 188 211 203 117 152 167 156 162 153 139 128 104 134 121 133 125 85 115 136 144 151